Regional Weather Roundup
Issued by NWS

Home | Current Version | Previous Version | Graphics & Text | Print | Product List | Glossary On
Versions: 1 2 3 4 5 6 7 8 9 10 11 12 13 14 15 16 17 18 19 20 21 22 23 24 25 26 27 28 29 30 31 32 33 34 35 36 37 38 39 40 41 42 43 44 45 46 47 48 49 50
000
ASUS43 KLSX 251307
RWRMO

WEATHER SUMMARY FOR MISSOURI
NATIONAL WEATHER SERVICE SPRINGFIELD MO
800 AM CDT FRI MAY 25 2018

NOTE: "FAIR" INDICATES FEW OR NO CLOUDS BELOW 12,000 FEET WITH NO
       SIGNIFICANT WEATHER AND/OR OBSTRUCTIONS TO VISIBILITY.
       CURRENT SKY AND/OR WEATHER CONDITIONS ARE NOT AVAILABLE FOR
       CHILLICOTHE AND FARMINGTON.

MOZ001>031-035>038-043-044-053-054-251400-
...NORTHERN AND WESTERN MISSOURI...

CITY           SKY/WX    TMP DP  RH WIND       PRES   REMARKS
KANSAS CTY INT CLOUDY    66  65  96 S14       29.91F
KANSAS C DTWN  MOSUNNY   68  64  87 SE6       29.91F
LEE`S SUMMIT   CLOUDY    65  65 100 SW8       29.93F
ST JOSEPH      CLOUDY    72  67  84 S10       29.90S
CHILLICOTHE      N/A     69  65  86 S7        29.94F
KIRKSVILLE     MOSUNNY   71  65  81 S6        29.95S

$$
MOZ066>068-077>081-088>096-101>105-251400-
...SOUTHWEST MISSOURI...

CITY           SKY/WX    TMP DP  RH WIND       PRES   REMARKS
SPRINGFIELD    CLOUDY    71  65  81 S9        29.98R
JOPLIN         CLOUDY    71  66  84 SW6       29.98R
BRANSON        MOSUNNY   73  66  78 CALM      30.00S

$$
MOZ032>034-039>042-045>050-055>058-069>072-251400-
...CENTRAL MISSOURI...

CITY           SKY/WX    TMP DP  RH WIND       PRES   REMARKS
COLUMBIA       MOSUNNY   74  68  81 S6        29.96S
JEFFERSON CITY PTSUNNY   74  66  76 VRB3      29.96S
ROLLA          SUNNY     72  64  76 S7        29.98F
SEDALIA        RAIN      68  67  96 W8        29.98R FOG
WARRENSBURG    LGT RAIN  64  63  94 E5        29.93F
OSAGE BEACH    CLOUDY    70  67  90 S5        29.97S

$$
MOZ051-052-059>065-251400-
...EAST CENTRAL MISSOURI...

CITY           SKY/WX    TMP DP  RH WIND       PRES   REMARKS
ST LOUIS INTL  PTSUNNY   77  67  71 S5        29.97F
SPIRIT OF STL  PTSUNNY   74  67  78 CALM      29.96S
ST CHARLES     MOSUNNY   75  67  76 CALM      29.96S

$$
MOZ072>076-082>087-097>100-106>115-251400-
...SOUTH CENTRAL AND SOUTHEAST MISSOURI...

CITY           SKY/WX    TMP DP  RH WIND       PRES   REMARKS
CAPE GIRARDEAU FAIR      75  69  81 SW3       29.98S
FARMINGTON     SUNNY     71  66  84 CALM      30.00S
POPLAR BLUFF   FAIR      75  72  90 SW6       29.98S
WEST PLAINS    CLOUDY    71  66  84 SW3       30.01S

$$




USA.gov is the U.S. government's official web portal to all federal, state and local government web resources and services.